CAPE
0 0 0 0 0 0 0 0 46 206 113 111 120 135 26 0 23 84 100 71 139 122 192 216 243 279 245 307 374 397 601 808 667 528 500 533 524 870 795 887 860 826 1302 1090
0 0 0 0 0 0 83 102 101 109 29 29 6 52 117 48 43 101 105 141 115 108 137 221 234 253 240 277 410 514 573 697 573 616 491 508 643 662 800 1059 928 1203 1170 999
0 0 0 0 0 0 0 0 99 140 65 44 0 24 72 58 53 52 35 133 154 115 138 216 200 221 240 245 350 447 485 536 518 549 488 405 528 706 610 674 938 1207 1163 724
0 0 0 0 0 0 0 0 121 90 21 0 11 0 9 64 33 32 45 11 87 122 167 203 218 232 221 229 317 447 478 514 522 492 521 274 381 170 202 370 685 935 1072 917
0 0 0 0 0 0 0 0 9 136 52 67 8 15 21 76 49 12 4 24 3 82 95 175 202 216 248 283 262 346 417 551 491 445 566 460 374 232 279 738 487 752 797 964
0 0 0 0 0 0 1 28 87 78 20 0 32 28 0 63 78 94 35 27 22 23 100 146 173 251 278 291 240 240 304 340 533 414 489 431 319 318 402 551 598 517 835 845
0 0 0 0 0 0 0 3 0 0 0 0 0 24 20 45 69 128 88 72 39 23 64 163 187 219 209 189 196 191 262 239 357 418 461 496 337 527 509 526 652 812 918 1041
0 0 0 0 0 0 0 0 3 0 0 0 1 33 54 35 62 98 174 109 36 21 35 148 204 179 208 183 160 178 199 223 338 436 423 452 488 513 421 371 508 801 878 782
0 0 0 0 0 0 0 0 0 1 0 1 13 17 14 79 170 109 139 180 21 3 10 110 207 224 135 117 182 166 163 237 295 310 379 327 340 411 443 494 619 709 797 811
0 0 0 0 0 0 0 0 0 0 0 0 0 15 29 141 124 167 251 235 67 11 24 60 95 185 161 118 228 203 186 97 151 314 382 340 471 467 559 534 568 634 788 897
0 0 0 0 0 0 0 0 0 0 0 10 7 12 83 207 260 294 446 328 206 37 19 64 150 209 128 125 183 252 313 256 84 147 403 375 352 621 623 578 411 700 742 769
0 0 0 0 0 0 0 0 0 0 0 0 17 0 252 313 424 333 375 412 411 241 161 215 191 130 145 109 142 245 278 237 230 174 216 297 330 400 545 609 442 496 390 806
0 0 0 0 0 0 0 0 0 0 0 0 0 0 333 469 446 392 335 320 271 283 286 323 378 195 114 108 46 104 171 218 351 275 209 388 247 337 476 664 677 486 642 901
0 0 0 0 2 0 0 0 0 0 0 1 0 23 143 296 370 335 312 263 189 116 90 137 296 277 123 53 26 67 91 61 78 109 94 132 272 357 335 294 350 564 828 963
0 2 0 0 0 0 0 0 0 0 0 0 28 62 149 265 257 187 181 137 101 99 58 86 137 274 216 87 41 6 38 21 36 19 2 3 10 67 74 74 81 166 364 577
0 1 0 0 0 0 0 0 0 4 0 45 58 174 497 300 287 183 91 66 71 36 8 30 27 72 77 86 10 9 7 6 110 86 21 15 2 39 29 27 0 0 66 147
0 0 3 17 0 0 0 0 57 64 124 147 110 307 563 286 299 192 98 28 10 8 2 5 2 3 1 0 0 1 0 11 40 62 78 16 1 0 0 13 0 0 0 52
0 0 0 22 13 15 0 0 2 208 330 351 307 316 521 243 86 44 60 6 0 2 3 2 2 2 2 1 0 0 0 0 0 0 1 1 2 0 0 0 0 0 0 0
0 0 0 0 13 1 0 0 0 0 16 347 418 468 220 146 18 4 0 1 0 4 2 1 2 2 1 0 0 0 0 0 0 0 0 0 0 0 0 0 0 0 0 0
0 0 0 0 0 6 1 0 0 11 0 522 469 321 170 36 90 3 0 0 0 0 0 0 0 0 0 0 0 0 0 0 0 0 0 0 0 0 0 0 0 0 1 2
0 0 0 0 0 0 0 0 0 0 0 229 591 338 129 254 259 0 0 0 0 0 0 0 0 0 0 0 0 0 0 0 0 0 0 0 0 0 0 0 0 0 0 0
0 0 0 0 0 0 0 0 0 0 0 56 675 369 332 14 0 0 0 0 0 0 0 0 0 0 0 0 0 0 0 0 0 0 0 0 0 0 0 0 0 0 0 0
0 0 0 0 0 0 0 0 0 0 0 21 420 149 1 0 1 0 0 0 0 0 0 0 0 0 0 0 0 0 0 0 0 0 0 0 0 0 0 0 0 0 0 0
0 0 0 0 0 0 0 0 0 0 0 1 84 1 0 0 0 0 0 0 0 0 0 0 0 0 0 0 0 0 0 0 0 0 0 0 0 0 0 0 0 0 0 0
0 0 0 0 0 0 0 0 0 0 0 7 0 0 0 0 0 0 0 0 0 0 0 0 0 0 0 0 0 0 0 0 0 0 0 0 0 0 0 0 0 0 0 0
0 0 0 0 0 0 0 0 0 0 0 0 5 0 0 0 0 0 0 0 0 0 0 0 0 0 0 0 0 0 0 0 0 0 0 0 0 0 0 0 0 0 0 0
CIN
-0 -0 -0 -0 -0 -0 -0 -0 -66 -16 -25 -7 -1 -0 -4 -0 -16 -18 -28 -35 -22 -43 -26 -31 -31 -46 -45 -42 -36 -31 -31 -27 -37 -38 -28 -25 -17 -17 -24 -21 -31 -38 -29 -37
-0 -0 -0 -0 -0 -0 -63 -50 -59 -66 -52 -38 -23 -2 -0 -1 -34 -6 -32 -20 -32 -33 -29 -34 -40 -37 -46 -50 -42 -35 -25 -35 -40 -37 -36 -31 -30 -35 -15 -22 -18 -20 -24 -36
-0 -0 -0 -0 -0 -0 -0 -0 -42 -30 -49 -29 -0 -11 -0 -2 -19 -17 -48 -23 -35 -29 -33 -44 -52 -48 -52 -58 -55 -42 -32 -34 -37 -39 -51 -50 -43 -35 -25 -23 -17 -16 -22 -40
-0 -0 -0 -0 -0 -0 -0 -0 -36 -49 -50 -18 -44 -1 -30 -3 -7 -38 -29 -84 -42 -27 -30 -44 -54 -56 -62 -61 -60 -48 -32 -29 -33 -42 -32 -36 -19 -22 -23 -19 -15 -16 -23 -29
-0 -0 -0 -0 -0 -0 -0 -0 -22 -31 -28 -29 -22 -16 -22 -47 -16 -60 -76 -63 -65 -56 -44 -40 -57 -67 -66 -59 -67 -63 -40 -29 -31 -37 -25 -21 -20 -23 -22 -21 -19 -18 -13 -14
-0 -0 -0 -0 -0 -0 -26 -45 -56 -54 -42 -0 -39 -23 -0 -109 -154 -44 -67 -111 -61 -70 -58 -72 -63 -86 -73 -66 -73 -71 -61 -52 -36 -36 -30 -24 -25 -25 -31 -26 -18 -16 -11 -15
-0 -0 -0 -0 -0 -0 -0 -17 -0 -0 -0 -0 -0 -63 -55 -148 -156 -94 -108 -139 -131 -113 -67 -52 -71 -89 -93 -89 -88 -82 -73 -64 -51 -35 -37 -27 -26 -35 -32 -28 -19 -21 -17 -12
-0 -0 -0 -0 -0 -0 -0 -0 -4 -0 -0 -0 -41 -72 -83 -267 -244 -160 -77 -102 -128 -112 -85 -60 -84 -87 -100 -96 -114 -97 -84 -72 -56 -39 -53 -39 -34 -31 -38 -49 -39 -23 -18 -11
-0 -0 -0 -0 -0 -0 -0 -0 -0 -12 -0 -34 -56 -150 -256 -244 -193 -202 -150 -85 -151 -152 -119 -105 -98 -112 -122 -134 -116 -105 -99 -78 -62 -52 -42 -38 -61 -39 -28 -46 -50 -41 -35 -26
-0 -0 -0 -0 -0 -0 -0 -0 -0 -0 -1 -0 -0 -76 -81 -180 -214 -198 -149 -130 -121 -143 -105 -106 -125 -104 -117 -147 -108 -108 -108 -91 -80 -49 -39 -20 -28 -32 -34 -39 -39 -42 -43 -31
-0 -0 -0 -0 -0 -0 -0 -0 -0 -0 -0 -2 -2 -33 -203 -186 -204 -169 -117 -113 -138 -152 -111 -116 -111 -111 -115 -116 -114 -91 -85 -82 -89 -70 -43 -26 -15 -25 -29 -24 -19 -36 -41 -36
-0 -0 -0 -0 -0 -0 -0 -0 -0 -0 -0 -0 -19 -0 -245 -213 -165 -205 -163 -132 -103 -89 -80 -78 -99 -126 -134 -119 -109 -95 -69 -60 -60 -76 -52 -40 -18 -14 -25 -24 -15 -25 -30 -34
-0 -0 -0 -0 -0 -0 -0 -0 -0 -0 -0 -0 -0 -0 -217 -189 -184 -187 -192 -181 -171 -140 -141 -120 -96 -105 -122 -109 -133 -80 -61 -63 -56 -72 -76 -48 -25 -13 -15 -23 -32 -18 -20 -24
-0 -0 -0 -0 -3 -0 -0 -0 -0 -0 -0 -5 -0 -37 -217 -250 -232 -229 -219 -222 -209 -192 -181 -173 -104 -93 -131 -125 -73 -30 -23 -61 -71 -71 -93 -71 -42 -40 -32 -45 -65 -41 -34 -25
-0 -36 -0 -0 -0 -0 -0 -0 -0 -0 -0 -0 -13 -26 -93 -285 -278 -286 -253 -275 -237 -199 -223 -222 -142 -51 -36 -52 -81 -142 -92 -48 -39 -38 -8 -69 -101 -77 -70 -82 -100 -86 -63 -52
-0 -25 -0 -0 -0 -0 -0 -0 -2 -125 -0 -59 -43 -58 -193 -271 -265 -291 -323 -294 -272 -263 -291 -320 -277 -108 -68 -35 -150 -2 -91 -29 -52 -0 -7 -46 -4 -30 -71 -106 -0 -0 -119 -106
-0 -66 -69 -26 -0 -0 -0 -0 -140 -178 -169 -118 -30 -115 -186 -278 -275 -313 -334 -337 -334 -258 -0 -274 -0 -0 -0 -0 -0 -4 -1 -91 -95 -51 -36 -23 -34 -0 -0 -171 -4 -0 -0 -147
-0 -0 -0 -54 -59 -12 -2 -0 -38 -138 -154 -174 -181 -206 -164 -222 -258 -316 -311 -167 -0 -0 -0 -0 -0 -0 -0 -0 -0 -0 -0 -0 -0 -0 -0 -0 -0 -0 -0 -0 -0 -0 -0 -0
-0 -0 -0 -0 -38 -1 -0 -0 -0 -0 -23 -158 -163 -154 -214 -233 -310 -100 -0 -0 -0 -0 -0 -0 -0 -0 -0 -0 -0 -0 -0 -0 -0 -0 -0 -0 -0 -0 -0 -0 -0 -0 -0 -0
-0 -0 -0 -0 -0 -4 -3 -0 -0 -129 -0 -90 -128 -145 -203 -267 -171 -68 -0 -0 -0 -0 -0 -0 -0 -0 -0 -0 -0 -0 -0 -0 -0 -0 -0 -0 -0 -0 -0 -0 -0 -0 -0 -0
-0 -0 -0 -0 -0 -0 -0 -0 -0 -0 -2 -88 -55 -100 -203 -126 -147 -0 -0 -0 -0 -0 -0 -0 -0 -0 -0 -0 -0 -0 -0 -0 -0 -0 -0 -0 -0 -0 -0 -0 -0 -0 -0 -0
-0 -0 -0 -0 -0 -0 -0 -0 -0 -0 -0 -152 -43 -79 -61 -56 -0 -0 -0 -0 -0 -0 -0 -0 -0 -0 -0 -0 -0 -0 -0 -0 -0 -0 -0 -0 -0 -0 -0 -0 -0 -0 -0 -0
-0 -0 -0 -0 -0 -0 -0 -0 -0 -0 -0 -275 -95 -175 -32 -0 -0 -0 -0 -0 -0 -0 -0 -0 -0 -0 -0 -0 -0 -0 -0 -0 -0 -0 -0 -0 -0 -0 -0 -0 -0 -0 -0 -0
-0 -0 -0 -0 -0 -0 -0 -0 -0 -0 -0 -40 -192 -256 -0 -0 -0 -0 -0 -0 -0 -0 -0 -0 -0 -0 -0 -0 -0 -0 -0 -0 -0 -0 -0 -0 -0 -0 -0 -0 -0 -0 -0 -0
-0 -0 -0 -0 -0 -0 -0 -0 -0 -0 -0 -212 -0 -0 -0 -0 -0 -0 -0 -0 -0 -0 -0 -0 -0 -0 -0 -0 -0 -0 -0 -0 -0 -0 -0 -0 -0 -0 -0 -0 -0 -0 -0 -0
-0 -0 -0 -1 -0 -0 -0 -0 -0 -0 -0 -0 -155 -0 -0 -0 -0 -0 -0 -0 -0 -0 -0 -0 -0 -0 -0 -0 -0 -0 -0 -0 -0 -0 -0 -0 -0 -0 -0 -0 -0 -0 -0 -0
Wind_Speed
17 20 24 25 24 18 19 19 19 15 18 13 16 12 12 19 38 39 27 20 27 36 34 32 32 31 29 28 28 27 27 26 27 26 25 24 23 23 21 20 21 21 19 18
18 27 22 23 23 18 15 17 18 14 14 13 12 14 9 12 30 34 12 26 27 36 18 29 34 32 31 29 29 28 28 27 27 26 25 24 22 21 21 21 21 20 20 19
21 22 19 22 24 22 19 18 17 19 12 8 9 14 14 14 14 21 18 18 31 37 18 36 30 28 31 30 29 29 28 28 26 25 25 23 19 17 21 22 20 19 19 20
23 17 20 23 26 24 25 18 14 7 13 20 20 20 21 18 24 38 38 24 34 31 15 20 31 27 29 30 30 30 30 28 27 25 25 24 24 22 22 22 21 18 19 19
21 21 21 23 23 22 23 17 14 12 14 17 23 19 23 27 31 30 35 37 17 35 33 24 27 32 31 31 30 31 31 30 28 27 26 25 24 22 20 18 21 22 20 19
19 19 20 25 23 18 15 14 12 16 19 28 26 27 24 33 33 34 39 34 38 23 32 31 34 22 34 30 26 29 32 31 30 28 28 26 23 23 20 19 19 20 19 18
25 23 22 20 21 19 21 22 27 30 29 29 19 27 25 17 5 34 28 29 32 40 29 32 30 30 15 9 9 23 26 31 28 29 28 27 25 18 22 21 21 20 18 18
29 33 27 22 25 23 24 26 29 35 31 25 16 28 21 13 7 11 24 30 28 29 24 37 25 24 23 9 19 17 23 24 18 20 25 24 24 20 18 18 20 19 19 18
24 27 23 26 24 24 27 35 27 22 22 25 23 22 20 18 13 4 11 20 22 25 31 16 12 16 14 9 11 16 16 21 22 21 20 21 21 21 18 15 16 17 18 18
20 25 21 21 22 24 25 24 33 30 33 34 27 26 21 16 11 7 3 11 15 17 16 14 12 12 16 13 10 9 14 16 18 19 25 22 17 17 19 17 16 18 18 16
19 22 20 20 25 26 25 27 28 29 28 33 30 28 18 14 8 7 6 5 8 10 11 11 14 11 14 15 13 14 13 13 15 19 23 28 23 19 19 23 17 13 12 15
18 20 27 23 18 23 24 27 25 34 33 28 27 24 20 14 10 6 6 4 6 11 17 10 10 17 14 13 17 17 20 20 18 18 18 23 26 23 22 23 22 16 17 16
18 21 25 24 21 19 24 24 26 25 25 32 32 27 16 11 9 7 7 4 7 12 11 11 18 22 20 18 17 16 23 23 24 26 19 22 23 22 21 21 20 21 20 19
19 23 25 30 25 22 25 25 24 27 32 29 31 25 18 15 14 14 12 7 8 12 13 15 15 16 16 18 15 14 19 20 18 21 18 15 16 16 15 15 15 16 18 19
20 24 22 21 21 16 20 25 25 27 26 30 27 26 18 14 12 12 11 8 10 11 10 10 12 13 8 14 12 5 10 13 17 16 18 12 12 11 11 12 14 14 16 17
18 21 21 20 19 20 21 19 21 23 24 26 23 24 16 12 9 9 10 10 9 13 13 14 13 10 10 7 6 9 6 5 4 12 10 12 14 15 11 13 13 14 15 16
17 18 21 24 22 24 26 23 22 24 23 23 25 23 12 12 12 11 9 11 11 10 10 12 7 7 5 6 2 3 5 6 6 9 11 10 9 11 14 16 15 15 16 15
17 17 19 25 25 32 22 19 19 21 22 24 25 21 14 13 12 11 11 11 11 11 10 8 4 2 2 4 3 3 5 6 5 5 6 8 8 9 11 12 15 16 16 15
15 18 21 22 26 25 23 23 22 23 25 23 21 15 11 8 8 13 11 10 8 6 4 3 3 1 1 3 3 3 4 5 5 6 6 7 8 8 8 9 11 15 19 19
16 14 17 23 25 30 22 22 23 24 25 19 16 13 11 10 17 16 8 6 4 3 1 1 2 3 3 2 4 4 3 4 6 6 7 7 8 9 9 10 11 11 10 10
18 17 21 19 22 24 21 26 20 24 22 21 18 14 10 13 17 7 7 6 5 2 2 1 0 1 2 3 3 3 4 5 5 6 7 8 8 9 10 11 12 11 10 10
20 20 20 20 22 23 21 19 23 24 23 22 20 18 15 16 5 6 6 6 5 5 5 3 2 2 4 5 5 4 5 6 6 7 8 9 9 10 11 11 11 11 11 11
19 18 18 18 18 18 19 19 22 24 26 23 19 15 11 11 9 5 6 5 5 6 6 5 4 4 7 7 7 7 7 8 8 9 10 10 11 11 13 13 13 13 13 13
16 16 21 20 19 20 20 20 20 21 21 20 13 13 9 10 8 7 7 6 5 5 7 7 7 7 8 9 10 10 10 10 10 11 10 12 11 12 14 15 16 17 18 18
16 15 17 21 21 19 17 19 20 20 18 15 12 10 9 9 9 8 7 6 4 5 6 9 10 10 11 11 12 11 10 10 11 11 11 13 12 13 13 16 17 17 19 19
13 15 17 20 19 19 19 20 20 19 18 14 11 11 10 10 9 10 10 8 8 7 11 13 13 12 13 13 13 12 12 11 11 11 13 13 13 14 14 15 15 16 16 17
Wind_Direction
238 239 235 236 241 254 248 253 243 262 241 253 250 264 123 143 162 170 147 143 167 174 187 195 193 180 178 179 171 163 165 161 155 163 165 177 170 172 183 183 175 177 181 187
237 236 241 242 241 245 251 249 246 258 267 276 280 260 246 145 159 167 161 154 155 198 233 214 191 185 182 175 176 172 170 164 152 164 169 182 191 195 188 186 184 190 192 196
235 246 242 242 238 241 249 255 252 251 263 291 272 271 239 241 228 231 234 216 166 200 235 189 168 164 182 178 172 173 169 164 161 163 163 186 213 224 199 189 199 205 201 197
242 254 235 240 238 242 242 257 264 252 257 246 248 244 240 242 230 191 184 233 175 171 160 154 169 164 170 176 181 178 176 171 171 157 156 147 162 198 201 194 207 223 216 220
245 235 235 237 242 247 251 250 258 255 272 259 243 248 240 225 227 186 180 185 237 179 176 161 164 173 174 178 173 181 187 183 182 171 177 167 178 196 219 232 208 203 215 224
246 247 248 245 248 253 257 237 261 266 266 247 249 246 247 213 184 181 184 183 185 166 173 175 181 238 191 218 230 215 199 191 188 184 197 182 163 186 225 233 232 227 237 238
242 246 249 251 246 248 246 235 244 245 247 247 269 247 256 246 298 184 173 170 174 203 171 177 172 169 158 165 237 239 231 211 220 210 204 213 211 255 236 244 234 235 244 248
240 241 246 248 246 245 240 242 246 243 249 258 272 247 267 298 298 159 180 182 174 175 171 184 167 166 163 190 245 250 242 240 254 251 240 239 240 255 263 255 251 255 252 249
246 248 257 249 249 244 244 241 253 262 265 258 263 273 285 288 286 281 165 175 179 178 178 179 184 173 173 188 243 252 257 253 254 255 259 260 259 258 271 277 273 274 268 265
258 251 258 249 247 249 251 249 243 251 248 251 261 265 272 276 277 279 241 181 182 183 181 238 235 187 242 246 244 247 262 265 264 265 254 262 273 274 271 275 283 278 274 275
258 255 253 254 246 244 245 251 249 251 256 251 257 260 275 278 275 270 267 174 196 193 190 227 246 236 246 253 257 263 263 268 268 267 262 253 265 271 273 263 281 294 294 284
265 260 249 254 258 255 252 251 248 246 248 259 263 268 276 280 277 269 256 246 244 239 243 231 244 248 252 252 260 268 267 269 269 268 272 268 262 269 269 269 268 283 282 289
265 262 250 251 258 259 250 254 254 258 260 253 254 264 280 280 283 271 254 245 254 254 255 260 256 253 256 259 267 269 269 269 266 260 268 269 266 271 272 271 274 275 276 280
271 262 257 250 256 256 251 255 255 254 254 258 258 264 267 268 272 269 264 258 259 266 268 266 265 261 258 260 267 282 276 270 271 263 263 270 272 274 279 277 279 285 283 283
270 259 258 262 260 261 260 257 254 253 262 258 264 263 264 258 266 267 263 259 257 265 277 285 276 268 263 249 261 299 295 276 263 273 256 256 266 275 282 281 284 289 289 289
278 261 259 256 260 257 260 269 259 259 264 267 268 265 271 256 260 258 257 256 264 269 275 274 275 267 252 253 262 281 312 17 309 274 275 254 260 264 287 288 291 295 296 296
281 267 261 251 262 258 255 266 267 263 266 268 264 274 259 249 251 249 247 259 267 277 281 279 287 265 247 250 279 343 12 35 333 293 279 289 287 276 280 285 288 291 293 296
270 274 270 259 260 249 259 274 278 271 271 272 273 279 264 258 256 252 256 258 264 271 281 286 305 268 257 265 284 358 19 33 31 7 343 339 314 313 285 314 292 279 290 297
299 281 265 264 258 264 263 269 272 276 273 280 274 276 264 251 249 259 259 259 259 276 293 311 3 7 299 292 325 7 23 23 27 13 355 345 18 16 354 350 338 296 283 289
303 298 279 262 262 255 267 273 281 276 271 288 280 271 252 234 253 260 253 243 247 266 259 93 57 54 53 54 52 55 26 27 23 354 333 332 332 349 359 358 9 350 350 347
297 290 266 269 264 269 279 277 280 267 268 285 276 272 244 254 271 227 229 235 240 234 178 125 318 312 323 330 345 11 2 5 349 341 343 343 333 336 337 350 349 358 360 9
289 284 279 280 267 267 294 283 270 276 282 283 271 268 262 271 244 207 212 222 227 227 228 232 208 264 307 304 303 320 322 316 320 319 307 313 333 340 339 346 352 359 5 2
294 293 290 285 281 289 298 295 291 286 279 282 278 273 275 260 251 224 210 202 217 216 223 236 244 271 289 302 306 300 305 306 302 299 301 314 321 326 325 331 333 331 336 338
316 313 288 290 293 292 296 302 305 301 294 293 288 270 270 255 243 226 218 207 188 216 235 248 259 275 290 299 303 302 299 301 295 296 314 312 318 320 325 325 320 318 319 318
319 320 307 292 293 297 305 306 307 309 315 312 297 286 269 250 243 225 213 208 198 230 247 252 261 277 291 298 302 306 305 305 297 302 307 309 316 322 332 323 318 320 325 323
332 319 310 302 305 298 302 303 307 307 311 313 315 292 274 257 238 233 237 241 238 255 261 261 269 280 292 297 299 302 303 302 297 303 303 306 311 312 317 322 327 334 336 336